Location: Unspecified
(0.0000°N, 0.0000°E)
Time: 15:45:08
(UTC+00:00)

COSMOS 1275 DEB - Pass Details

Date: 21 February 2026
Orbit: 902 x 1038 km, 83.0° (Epoch: 19 November)

Event Time Altitude Azimuth Distance (km) Brightness Sun altitude
Rises 04:51:12 0° 191° (S) 3,724 ? -20.2°
Reaches altitude 10° 04:53:48 10° 194° (SSW) 2,759 ? -19.6°
Maximum altitude 05:00:00 60° 272° (W) 1,105 ? -18.1°
Drops below altitude 10° 05:06:02 10° 352° (N) 2,670 ? -16.6°
Sets 05:08:31 0° 356° (N) 3,595 ? -16.0°
